Location: Unspecified
(42.3650°N, 71.1030°W)
Time: 20:17:48
(UTC+00:00)

Courier 1B - Visible Passes

Search period start: 23 June 2024 00:00
Search period end: 03 July 2024 00:00
Orbit: 962 x 1208 km, 28.3° (Epoch: 23 June)

Date Brightness Start Highest point End Pass type
(mag) Time Alt. Az. Time Alt. Az. Time Alt. Az.
23 Jun 8.9 06:04:25 23° SSE 06:04:25 23° SSE 06:08:36 10° ESE visible
23 Jun 8.8 07:51:18 14° SW 07:55:56 25° S 08:01:58 10° SE visible
24 Jun 9.7 05:14:01 12° ESE 05:14:01 12° ESE 05:14:32 10° ESE visible
24 Jun 8.6 07:00:55 25° SSW 07:02:12 26° S 07:08:16 10° SE visible
25 Jun 9.0 06:10:42 23° SSE 06:10:42 23° SSE 06:14:27 10° SE visible
25 Jun 9.0 07:57:37 13° SW 08:01:44 21° SSW 08:07:06 10° SSE visible
26 Jun 8.8 07:07:37 23° SSW 07:08:02 23° S 07:13:38 10° SE visible
27 Jun 9.3 06:17:52 17° SSE 06:17:52 17° SSE 06:20:03 10° SE visible
27 Jun 9.2 08:04:49 12° SW 08:07:30 15° SSW 08:11:28 10° SSE visible
28 Jun 9.3 01:33:42 10° SSE 01:34:09 10° SSE 01:34:09 10° SSE visible
28 Jun 9.2 07:15:19 17° S 07:15:19 17° S 07:18:29 10° SSE visible
29 Jun 9.1 02:29:38 10° SSW 02:31:36 15° S 02:31:36 15° S visible
30 Jun 8.9 01:36:48 10° SSW 01:40:28 16° SSE 01:41:51 15° SSE visible
30 Jun 9.5 03:28:19 10° SW 03:28:47 12° SW 03:28:47 12° SW visible
01 Jul 8.7 02:35:00 10° SW 02:38:48 21° S 02:38:48 21° S visible
02 Jul 8.7 01:41:46 10° SSW 01:46:17 20° SSE 01:48:36 17° SE visible
02 Jul 9.3 03:34:16 10° SW 03:35:30 14° SW 03:35:30 14° SW visible
